Date,TemperatureHighF,TemperatureAvgF,TemperatureLowF,DewpointHighF,DewpointAvgF,DewpointLowF,HumidityHigh,HumidityAvg,HumidityLow,PressureMaxIn,PressureMinIn,WindSpeedMaxMPH,WindSpeedAvgMPH,GustSpeedMaxMPH,PrecipitationSumIn
2013-1-1,47,45,40,43,33,18,91,66,38,30.01,29.94,6,3,21,0.19
2013-1-2,43,39,37,36,35,32,96,84,68,30.04,29.95,1,0,6,0.18
2013-1-3,37,33,28,36,30,21,97,90,75,30.13,30.00,4,1,13,0.01
2013-1-4,39,30,26,21,17,12,75,58,34,30.19,30.10,7,3,24,0.01
2013-1-5,48,37,26,26,17,2,68,48,18,30.23,30.11,11,2,23,0.00
2013-1-6,48,40,33,37,32,26,89,74,55,30.11,29.97,5,2,17,0.01
2013-1-7,45,35,28,28,25,22,81,67,46,30.27,30.07,5,2,17,0.00
2013-1-8,49,39,31,42,32,23,92,76,59,30.30,30.22,4,0,9,0.00
2013-1-9,56,52,44,52,49,42,97,89,82,30.38,30.28,4,2,17,0.00
2013-1-10,57,52,45,52,49,38,94,88,76,30.43,30.29,4,1,10,0.00
2013-1-11,56,47,40,55,46,39,98,97,86,30.29,30.10,4,1,13,0.38
2013-1-12,67,59,55,59,56,53,98,91,72,30.14,30.08,6,2,18,0.02
2013-1-13,66,58,55,56,54,52,94,85,70,30.10,30.02,7,3,18,0.00
2013-1-14,58,57,56,56,56,55,98,97,93,30.08,30.04,6,2,13,0.48
2013-1-15,48,43,40,47,42,39,98,98,98,30.10,30.02,4,2,8,1.41
2013-1-16,52,51,49,49,48,47,95,91,88,29.97,29.94,3,1,9,0.92
2013-1-17,51,43,32,49,42,31,97,96,91,30.03,29.76,11,3,28,1.86
2013-1-18,34,33,33,25,24,23,69,68,67,30.35,30.32,3,2,5,0.01
2013-1-19,51,39,29,29,23,14,77,55,22,30.32,30.06,5,2,16,0.01
2013-1-20,50,43,38,32,24,11,65,48,27,30.06,29.99,7,2,22,0.00
2013-1-21,46,38,26,28,21,11,64,49,35,30.02,29.87,7,3,28,0.00
2013-1-22,27,22,15,11,2,-9,62,43,21,30.05,29.85,6,3,26,0.00
2013-1-23,38,29,19,24,16,2,68,58,46,30.14,29.92,6,2,19,0.00
2013-1-24,38,31,17,30,14,4,73,52,32,30.24,29.85,10,4,32,0.00
2013-1-25,39,24,15,37,18,3,94,78,57,30.26,29.93,6,1,18,0.09
2013-1-26,43,36,30,33,20,9,89,57,30,30.20,29.95,7,3,24,0.09
2013-1-27,35,29,22,28,24,17,93,82,54,30.34,30.20,3,0,6,0.02
2013-1-28,60,46,31,48,40,28,90,78,61,30.29,30.16,6,2,15,0.03
2013-1-29,67,57,50,55,47,39,95,69,54,30.17,30.01,6,2,16,0.05
2013-1-30,58,56,55,57,55,53,97,95,92,30.01,29.53,10,6,33,2.02
2013-1-31,32,30,29,21,19,18,68,62,56,29.89,29.83,9,4,31,0.69